I Watch It For The Plot // 10.1 TiB free of 113 TiB
| c | File Name | Size | Date |
|---|---|---|---|
| parent folder | - | - | |
| DIR | 104190_Pastelle, Showdeer Snuffslut/ | 37 | 2026-03-25 17:36:11 |
| DIR | 63987_Extreme Content/ | 657980026 | 2026-03-25 17:23:39 |
| DIR | 63988_Serene Content/ | 2640486912 | 2026-03-25 17:23:39 |
| DIR | 66148_Adventures of the Kings/ | 17327170 | 2026-03-25 17:36:11 |
| DIR | 66783_Between Content/ | 307974059 | 2026-03-25 17:23:39 |
| DIR | 66784_Meme Content/ | 94522966 | 2026-03-25 17:23:39 |
| DIR | 66998_Clean Content/ | 1245918675 | 2026-03-25 17:23:39 |
| DIR | 67319_Steal Yo Girl/ | 774234200 | 2026-03-25 17:23:39 |
| DIR | 70090_Expressions in Drawn Pornography/ | 96862947 | 2026-03-25 17:36:11 |
| DIR | 73763_Playtime/ | 10 | 2026-03-25 17:23:39 |
| DIR | 73813_Unclean Content/ | 83885989 | 2026-03-25 17:36:09 |
| DIR | 73814_Exploitable Templates/ | 93447285 | 2026-03-25 17:23:39 |
| DIR | 78606_Esteemed Content/ | 144111450 | 2026-03-25 17:36:10 |
| DIR | 81229_Farmstead Shenanigans/ | 76892454 | 2026-03-25 17:23:39 |
| DIR | 82286_Hunter's Huntress/ | 133146811 | 2026-03-25 17:23:38 |
| DIR | 83502_The Death Row/ | 74734386 | 2026-03-25 17:36:11 |
| DIR | 84759_CHESS!/ | 76313081 | 2026-03-25 17:36:09 |
| DIR | 95861_Bonnie's Confidence/ | 73726152 | 2026-03-25 17:36:10 |
| - | 2190117.json | 5294 | 2025-07-15 23:21:05 |
| - | 2190117_3179656_Meowmere_skr_nt_sterskov.png | 7135548 | 2025-07-15 23:21:05 |
| - | 2244579.json | 5681 | 2020-09-02 12:44:05 |
| - | 2244579_3263804_Meowmere_118721025_624603341372159_8471209872694827167_n.jpg | 58912 | 2020-09-02 12:44:07 |
| - | 2244580.json | 5957 | 2020-09-02 12:44:09 |
| - | 2244580_3263807_Meowmere_118770069_1034620093638234_6942501196626884565_n.jpg | 48620 | 2020-09-02 12:44:11 |
| - | 2246824.json | 5727 | 2020-09-05 16:23:35 |
| - | 2246824_3267340_Meowmere_imag0237.jpg | 494672 | 2020-09-05 16:23:37 |
| - | 2275335.json | 6669 | 2020-10-12 07:28:13 |
| - | 2275335_3311325_Meowmere_ych_cuck.png | 10660657 | 2020-10-12 07:28:23 |
| - | 2275344.json | 7248 | 2020-10-12 07:31:11 |
| - | 2275344_3311335_Meowmere_ych_maids.png | 13457106 | 2020-10-12 07:31:47 |
| - | 2275353.json | 6944 | 2020-10-12 07:32:20 |
| - | 2275353_3311347_Meowmere_ych_roast.png | 12057413 | 2020-10-12 07:32:52 |
| - | 2682344.json | 8159 | 2022-04-03 10:09:25 |
| - | 2682344_3968782_Meowmere_ylychb.png | 2230426 | 2022-04-03 10:09:25 |
| - | 2682344_3969175_Meowmere_ylycha.png | 1789069 | 2022-04-03 10:09:25 |
| - | 2737075.json | 4480 | 2022-06-12 11:09:45 |
| - | 2737075_4057197_Meowmere_comopen.png | 633041 | 2022-06-12 11:09:46 |
| - | 2749247.json | 14368 | 2022-06-26 10:38:21 |
| - | 2749247_4076325_Meowmere_1.png | 4733893 | 2022-06-26 10:38:20 |
| - | 2749247_4076327_Meowmere_2.png | 2564656 | 2022-06-26 10:38:20 |
| - | 2749247_4076328_Meowmere_3.png | 3313382 | 2022-06-26 10:38:21 |
| - | 2749247_4076329_Meowmere_4.png | 2575689 | 2022-06-26 10:38:21 |
| - | 2749247_4076330_Meowmere_5.png | 3633784 | 2022-06-26 10:38:21 |
| - | 2855038.json | 7201 | 2022-11-13 11:30:15 |
| - | 2855038_4245515_Meowmere_ychsmoke.png | 1991258 | 2022-11-13 11:30:16 |
| - | 2916981.json | 8240 | 2025-07-08 01:34:02 |
| - | 2916981_4345358_Meowmere_text.png | 7685956 | 2025-07-08 01:34:02 |
| - | 2916981_4345362_Meowmere_notext.png | 7761728 | 2025-07-08 01:34:03 |
| - | 2930324.json | 4441 | 2023-02-19 11:57:22 |
| - | 2930324_4368155_Meowmere_commissions.png | 33486 | 2023-02-19 11:57:22 |
| - | 2947823.json | 9383 | 2023-03-15 11:09:27 |
| - | 2947823_4396577_Meowmere_whoreych.png | 5400471 | 2023-03-15 11:09:28 |
| - | 2971908.json | 8184 | 2023-04-16 10:46:25 |
| - | 2971908_4438109_Meowmere_ychdare.png | 5344716 | 2023-04-16 10:46:25 |
| - | 3140669.json | 10381 | 2023-10-11 10:14:28 |
| - | 3140669_4717153_Meowmere_ych2000.png | 2575663 | 2023-10-11 10:14:28 |
| - | 3283050.json | 6700 | 2024-03-27 11:11:14 |
| - | 3283050_4964409_Meowmere_ella.png | 3254677 | 2024-03-27 11:11:14 |
| - | 3374597.json | 7839 | 2025-06-29 17:28:53 |
| - | 3374597_5146455_Meowmere_dalia.png | 1734516 | 2025-06-29 17:28:53 |
| - | 3504189.json | 8882 | 2025-06-27 18:19:25 |
| - | 3504189_5352205_Meowmere_commissionpricessixwindows_copy.png | 4453634 | 2025-06-27 18:19:25 |
| - | 3517047.json | 6927 | 2025-06-27 13:14:42 |
| - | 3517047_5375521_Meowmere_dolldimplebonuspromo.png | 2340525 | 2025-06-27 13:14:42 |
| - | 3566015.json | 8688 | 2025-03-06 03:54:49 |
| - | 3566015_5467438_Meowmere_beauwatermarked.png | 1500040 | 2025-03-06 03:54:49 |
| - | 3566015_5467439_Meowmere_jackwatermarked.png | 1455565 | 2025-03-06 03:54:49 |
| - | 3614591.json | 13759 | 2025-06-26 01:51:05 |
| - | 3614591_5557661_Meowmere_1.png | 1736361 | 2025-06-26 01:51:05 |
| - | 3614591_5557662_Meowmere_2.png | 2033377 | 2025-06-26 01:51:05 |
| - | 3614591_5557665_Meowmere_3.png | 1735621 | 2025-06-26 01:51:05 |
| - | 3630782.json | 5015 | 2025-06-24 16:41:52 |
| - | 3651922.json | 5254 | 2025-06-29 08:10:28 |
| - | 3651922_5620446_Meowmere_5585329_meowmere_comopen.png | 88716 | 2025-07-30 22:42:11 |
| - | 3653425.json | 11148 | 2025-07-01 18:23:55 |
| - | 3653425_5622946_Meowmere_goodych1.png | 1521890 | 2025-07-01 18:23:55 |
| - | 3653437.json | 11591 | 2025-07-01 18:23:45 |
| - | 3653437_5622965_Meowmere_badych1.png | 1680306 | 2025-07-01 18:23:45 |
| - | 3658219.json | 9509 | 2025-07-07 15:11:41 |
| - | 3658219_5630665_Meowmere_ych2.png | 1779219 | 2025-07-07 15:11:41 |
| - | 3658219_5630683_Meowmere_ych1.png | 2473074 | 2025-07-07 15:11:40 |
| - | 3661313.json | 14173 | 2025-07-11 23:24:28 |
| - | 3661313_5636303_Meowmere_good1_copy.png | 4367297 | 2025-07-11 23:24:28 |
| - | 3661313_5636304_Meowmere_good2_copy.png | 4479824 | 2025-07-11 23:24:28 |
| - | 3664104.json | 11612 | 2025-07-16 07:25:08 |
| - | 3664104_5641182_Meowmere_ych.png | 1148722 | 2025-07-16 07:25:08 |
| - | 3666183.json | 22979 | 2025-07-18 12:36:58 |
| - | 3666183_5644748_Meowmere_hearts.png | 5663685 | 2025-07-18 12:36:57 |
| - | 3666183_5644750_Meowmere_clubs.png | 5088296 | 2025-07-18 12:36:57 |
| - | 3666183_5644751_Meowmere_diamonds.png | 5158615 | 2025-07-18 12:36:58 |
| - | 3666183_5644752_Meowmere_spades.png | 4935049 | 2025-07-18 12:36:58 |
| - | 3666183_5644753_Meowmere_jokers.png | 3988246 | 2025-07-18 12:36:58 |
| - | 3666183_5644756_Meowmere_aces.png | 4811053 | 2025-07-18 12:36:58 |
| - | 3666183_5644758_Meowmere_jumble.png | 3417342 | 2025-07-18 12:36:59 |
| - | 3666235.json | 11151 | 2025-07-19 17:10:41 |
| - | 3666235_5644831_Meowmere_ych1.png | 1696253 | 2025-07-19 17:10:40 |
| - | 3666235_5644832_Meowmere_ych2.png | 1676138 | 2025-07-19 17:10:41 |
| - | 3674986.json | 5001 | 2025-07-30 22:42:11 |
| - | 3676782.json | 11519 | 2025-08-02 17:09:10 |
| - | 3676782_5663883_Meowmere_ych1.jpg | 374935 | 2025-08-02 17:09:10 |
| - | 3676782_5663911_Meowmere_ych2.jpg | 473436 | 2025-08-02 17:09:10 |
| - | 3680257.json | 14560 | 2025-08-08 16:45:02 |
| - | 3680257_5669834_Meowmere_1ych.png | 1527250 | 2025-08-08 16:45:02 |
| - | 3680257_5669840_Meowmere_3ych.png | 259787 | 2025-08-08 16:45:03 |
| - | 3680257_5669868_Meowmere_2ych.png | 2567130 | 2025-08-08 16:45:02 |
| - | 3685213.json | 12923 | 2025-08-14 16:15:13 |
| - | 3685213_5678821_Meowmere_ych.png | 1746735 | 2025-08-14 16:15:13 |
| - | 3712783.json | 8821 | 2025-09-23 17:16:51 |
| - | 3712783_5729058_Meowmere_cuckcallych.png | 1722394 | 2025-09-23 17:16:51 |
| - | 3714174.json | 11888 | 2025-09-25 19:58:58 |
| - | 3714174_5731531_Meowmere_ych.png | 1109044 | 2025-09-25 19:58:58 |
| - | 3732513.json | 9313 | 2025-10-21 17:28:41 |
| - | 3732513_5763765_Meowmere_raichu.png | 5222073 | 2025-10-21 17:28:41 |
| - | 3737059.json | 8151 | 2025-10-26 21:56:56 |
| - | 3737059_5771925_Meowmere_princessych.png | 1497319 | 2025-10-26 21:56:56 |
| - | 3737065.json | 7871 | 2025-10-26 22:00:46 |
| - | 3737065_5771935_Meowmere_spiderych.png | 793064 | 2025-10-26 22:00:46 |
| - | 3767858.json | 16103 | 2025-12-08 21:09:53 |
| - | 3767858_5825870_Meowmere_finch0.png | 1491474 | 2025-12-08 21:09:53 |
| - | 3767858_5825871_Meowmere_finch1.png | 1796986 | 2025-12-08 21:09:53 |
| - | 3767858_5825872_Meowmere_finch2.png | 1764024 | 2025-12-08 21:09:53 |
| - | 3767858_5825873_Meowmere_finch3.png | 1802835 | 2025-12-08 21:09:53 |